Flag for Hungary Weather past 2 weeks in Szeged, Hungary

Now
47 °F

Overcast.


Feels Like: 45 °F
Forecast: 44 / 53 °F
Wind: 5 mph from Northeast

Location: Szeged

Current Time: Feb 27, 2015 at 5:07:36 PM

Latest Report: Feb 27, 2015 at 4:00 PM


Visibility: 5 mi

Pressure: 29.93 "Hg

Humidity: 76%

Dew point: 40 °F

Location of SzegedLocation

Historic Weather in Szeged — Graph

°F

Szeged temperature yesterday

Maximum temperature yesterday: 44 °F (at 1:00 PM)
Minimum temperature yesterday: 40 °F (at 11:00 PM)
Average temperature yesterday: 43 °F

Past Weeks' High & Low Weather Summary

 TemperatureHumidityPressure
High57 °F (Feb 24, 3:00 PM)96% (Feb 23, 4:00 AM)30.76 "Hg (Feb 23, 4:00 AM)
Low20 °F (Feb 18, 7:00 AM)29% (Feb 18, 3:00 PM)29.64 "Hg (Feb 24, 4:00 PM)
Average38 °F77%30.13 "Hg
* Reported Feb 12 3:00 PM — Feb 27 3:00 PM, Szeged, Weather by CustomWeather, © 2015

Note: Actual official high and low records may vary slightly from our data, if they occured in-between our weather recording intervals... More about our weather records

Advertising

Szeged weather history for previous 24 hours

 ConditionsComfort  
Time TempWeatherWind HumidityBarometerVisibility
3:00 PM
Fri, Feb 27
47 °FOvercast.3 mph75%29.94 "Hg6 mi
2:00 PM47 °FOvercast.3 mph72%29.94 "Hg6 mi
1:00 PM47 °FOvercast.2 mph69%29.96 "Hg5 mi
12:00 PM46 °FOvercast.1 mph67%29.98 "Hg6 mi
11:00 AM45 °FOvercast.2 mph76%30.00 "Hg5 mi
10:00 AM43 °FOvercast.1 mph81%30.00 "Hg4 mi
9:00 AM41 °FOvercast.1 mph91%30.01 "Hg4 mi
8:00 AM40 °FFog.2 mph94%30.02 "Hg2 mi
7:00 AM40 °FFog.1 mph94%30.01 "Hg1 mi
6:00 AM40 °FFog.2 mph94%30.02 "Hg2 mi
5:00 AM40 °FFog.2 mph93%30.03 "Hg3 mi
2:00 AM40 °FOvercast.2 mph93%30.06 "Hg5 mi
1:00 AM40 °FOvercast.No wind93%30.06 "Hg5 mi
12:00 AM40 °FOvercast.2 mph93%30.08 "Hg4 mi
11:00 PM
Thu, Feb 26
40 °FOvercast.3 mph92%30.08 "Hg4 mi
10:00 PM41 °FOvercast.2 mph90%30.08 "Hg4 mi
9:00 PM42 °FOvercast.3 mph89%30.10 "Hg4 mi
8:00 PM42 °FOvercast.3 mph90%30.10 "Hg4 mi
7:00 PM42 °FOvercast.3 mph90%30.09 "Hg4 mi
6:00 PM42 °FFog.3 mph91%30.07 "Hg3 mi
5:00 PM43 °FFog.5 mph90%30.05 "Hg3 mi
Weather by CustomWeather, © 2015

See weather overviewHow to use our weather pages